Powrót do katalogu

YAMAL 101

AktywnyŁącznośćGEO
NORAD 25896·PAYLOAD·🇷🇺 Russia

Wystrzelony Sep 6, 1999 z Baikonur Cosmodrome

Loading…

TLE

ŚwieżeSource: Space-Track

Epoka: Sep 11, 2026, 00:17 UTC

1 25896U 99047A   26254.01245565  .00000096  00000-0  00000-0 0  9991
2 25896  14.6276 358.8345 0086810  65.2773 339.3708  0.99860052 98668

Śledź YAMAL 101 w czasie rzeczywistym z AllMySat

Download on the App Store